Change the Weather History Date:

Sunday, November 4, 2012

  Actual Average Record
Temperature  
Mean Temperature 70 °F -  
Max Temperature 77 °F 79 °F 88 °F (1961)
Min Temperature 62 °F 65 °F 45 °F (1966)
Cooling Degree Days 4    
Growing Degree Days 20 (Base 50)    
Moisture  
Dew Point 64 °F    
Average Humidity 92    
Maximum Humidity 100    
Minimum Humidity 59    
Precipitation  
Precipitation 0.01 in - - ()
Sea Level Pressure  
Sea Level Pressure 30.09 in    
Wind  
Wind Speed 2 mph (ENE)    
Max Wind Speed 7 mph    
Max Gust Speed -    
Visibility 4 miles    
Events Fog    
Averages and records for this station are not official NWS values.
T = Trace of Precipitation, MM = Missing Value Source: NWS Daily Summary

Daily Weather History Graph

Daily Weather History Graph

Search for Another Location

Airport or City:

Trip Planner

Search our weather history database for the weather conditions in past years. The results will help you decide how hot, cold, wet, or windy it might be!

Date:

Astronomy

Nov. 04, 2012 Rise Set
Actual Time 6:44 AM EST 5:43 PM EST
Civil Twilight 6:19 AM EST 6:08 PM EST
Nautical Twilight 5:52 AM EST 6:36 PM EST
Astronomical Twilight 5:24 AM EST 7:03 PM EST
Moon 10:24 PM EST (11/4) 11:21 AM EST (11/4)
Length of Visible Light 11h 48m
Length of Day
10h 59m
Waning Gibbous, 72% of the Moon is Illuminated
Nov 4
Waning Gibbous
Nov 6
Last Quarter
Nov 13
New
Nov 20
First Quarter
Nov 28
Full

Hourly Weather History & Observations

Time (EST) Temp. Dew Point Humidity Pressure Visibility Wind Dir Wind Speed Gust Speed Precip Events Conditions
12:00 AM 64.4 °F 62.6 °F 94% 30.11 in 0.8 mi SSW 3.5 mph - N/A   Mist
12:07 AM 64.4 °F 62.6 °F 94% 30.11 in 2.5 mi Calm Calm - N/A   Mostly Cloudy
12:14 AM 62.6 °F 62.6 °F 100% 30.11 in 4.0 mi Calm Calm - N/A   Partly Cloudy
12:39 AM 64.4 °F 62.6 °F 94% 30.11 in 1.8 mi Calm Calm - N/A   Partly Cloudy
12:53 AM 63.0 °F 63.0 °F 100% 30.11 in 0.8 mi Calm Calm - N/A   Mist
1:12 AM 64.4 °F 62.6 °F 94% 30.11 in 1.2 mi South 3.5 mph - N/A   Scattered Clouds
1:16 AM 62.6 °F 62.6 °F 100% 30.11 in 3.0 mi South 3.5 mph - N/A   Scattered Clouds
1:25 AM 62.6 °F 62.6 °F 100% 30.10 in 2.5 mi South 3.5 mph - N/A   Partly Cloudy
1:29 AM 62.6 °F 62.6 °F 100% 30.10 in 1.0 mi Calm Calm - N/A   Mist
1:36 AM 62.6 °F 62.6 °F 100% 30.11 in 0.2 mi Calm Calm - N/A Fog Fog
1:53 AM 63.0 °F 63.0 °F 100% 30.11 in 0.2 mi Calm Calm - N/A Fog Fog
1:26 AM 62.6 °F 62.6 °F 100% 30.11 in 0.2 mi Calm Calm - N/A Fog Fog
1:53 AM 63.0 °F 63.0 °F 100% 30.10 in 0.2 mi Calm Calm - N/A Fog Fog
2:53 AM 64.0 °F 64.0 °F 100% 30.10 in 0.2 mi Calm Calm - N/A Fog Fog
3:53 AM 68.0 °F 66.9 °F 96% 30.09 in 0.2 mi NNE 3.5 mph - 0.01 in Fog Fog
4:53 AM 68.0 °F 66.9 °F 96% 30.10 in 0.2 mi Calm Calm - N/A Fog Fog
5:14 AM 68.0 °F 66.2 °F 94% 30.10 in 0.5 mi Calm Calm - N/A Fog Fog
5:24 AM 68.0 °F 66.2 °F 94% 30.10 in 0.8 mi NE 3.5 mph - N/A   Mist
5:53 AM 66.9 °F 66.9 °F 100% 30.11 in 0.5 mi NNE 3.5 mph - N/A Fog Fog
6:53 AM 66.9 °F 66.0 °F 97% 30.12 in 0.2 mi East 3.5 mph - N/A Fog Fog
7:53 AM 66.9 °F 66.9 °F 100% 30.13 in 0.2 mi Calm Calm - N/A Fog Fog
8:53 AM 66.9 °F 66.9 °F 100% 30.13 in 0.2 mi NE 3.5 mph - N/A Fog Fog
9:53 AM 66.9 °F 66.9 °F 100% 30.13 in 0.2 mi NE 4.6 mph - N/A Fog Fog
10:21 AM 68.0 °F 66.2 °F 94% 30.13 in 0.5 mi Calm Calm - N/A Fog Fog
10:53 AM 68.0 °F 66.9 °F 96% 30.12 in 3.0 mi Calm Calm - N/A   Overcast
11:29 AM 71.6 °F 66.2 °F 83% 30.11 in 10.0 mi Calm Calm - N/A   Scattered Clouds
11:53 AM 75.0 °F 68.0 °F 79% 30.10 in 10.0 mi NE 3.5 mph - N/A   Partly Cloudy
12:53 PM 75.9 °F 63.0 °F 64% 30.07 in 10.0 mi NE 5.8 mph - N/A   Partly Cloudy
1:53 PM 77.0 °F 62.1 °F 60% 30.05 in 10.0 mi ENE 5.8 mph - N/A   Partly Cloudy
2:53 PM 75.9 °F 63.0 °F 64% 30.03 in 10.0 mi ENE 4.6 mph - N/A   Clear
3:53 PM 77.0 °F 62.1 °F 60% 30.03 in 10.0 mi Calm Calm - N/A   Clear
4:53 PM 73.9 °F 59.0 °F 59% 30.02 in 10.0 mi WSW 6.9 mph - N/A   Clear
5:53 PM 70.0 °F 63.0 °F 78% 30.03 in 10.0 mi NW 5.8 mph - N/A   Clear
6:53 PM 68.0 °F 64.9 °F 90% 30.04 in 10.0 mi Calm Calm - N/A   Clear
7:53 PM 66.9 °F 64.9 °F 93% 30.05 in 7.0 mi WNW 3.5 mph - N/A   Clear
8:53 PM 66.0 °F 66.0 °F 100% 30.05 in 5.0 mi Calm Calm - N/A   Clear
9:24 PM 64.4 °F 64.4 °F 100% 30.05 in 1.8 mi Calm Calm - N/A   Scattered Clouds
9:42 PM 64.4 °F 64.4 °F 100% 30.04 in 2.0 mi SSW 3.5 mph - N/A   Partly Cloudy
9:53 PM 64.9 °F 64.0 °F 97% 30.04 in 5.0 mi SW 3.5 mph - N/A   Clear
10:53 PM 64.9 °F 64.0 °F 97% 30.03 in 5.0 mi SSW 3.5 mph - N/A   Clear